This demonstration page uses our WeatherBlox Daily Observations layout. Learn more.

Left ArrowRight Arrow

39.92423, -83.80882

Hourly Observations for June 29, 2022

Temp ( °F °C ) Dew Point ( °F °C ) Humidity (%) Winds ( mph kmh ) Pressure ( in mb ) Visibility ( mi km ) Precip ( " mm )
12:56 am 00:56 Clear 61 16.1 51 10.6 70 70 SSW 6 9 30.21 1023 10 16 0.00 0.00
1:56 am 01:56 Clear 55 12.8 55 12.8 100 100 Calm 30.22 1023 10 16 0.00 0.00
2:56 am 02:56 Clear 55 12.8 55 12.8 100 100 Calm 30.22 1023 10 16 0.00 0.00
3:56 am 03:56 Clear 53 11.7 52 11.1 96 96 Calm 30.22 1023 10 16 0.00 0.00
4:56 am 04:56 Clear 52 11 N/A N/A Calm 30.21 1023 10 16 0.00 0.00
5:30 am 05:30 Mostly Clear 52 11 52 11 100 100 Calm 30.24 1024 10 16 0.01 0.25
5:56 am 05:56 Clear 52 11 N/A N/A Calm 30.23 1024 10 16 0.01 0.25
6:56 am 06:56 Sunny 52 11 N/A N/A Calm 30.23 1024 10 16 0.00 0.00
7:56 am 07:56 Sunny 61 16.1 54 12.2 78 78 Calm 30.24 1024 10 16 0.00 0.00
8:56 am 08:56 Sunny 68 20 52 11.1 57 57 WSW 6 9 30.25 1024 10 16 0.00 0.00
9:56 am 09:56 Sunny 73 22.8 50 10 44 44 W 8 13 30.26 1025 10 16 0.00 0.00
10:56 am 10:56 Sunny 76 24.4 52 11.1 43 43 WNW 6 9 30.26 1025 10 16 0.00 0.00
11:56 am 11:56 Sunny 78 25.6 51 10.6 39 39 NNW 6 9 30.26 1025 10 16 0.00 0.00
12:56 pm 12:56 Sunny 80 26.7 51 10.6 37 37 VRB 3 6 30.26 1025 10 16 0.00 0.00
1:56 pm 13:56 Sunny 80 26.7 51 10.6 37 37 Calm 30.25 1025 10 16 0.00 0.00
2:56 pm 14:56 Sunny 82 27.8 51 10.6 34 34 VRB 3 6 30.24 1024 8 13 0.00 0.00
3:56 pm 15:56 Sunny 83 28.3 52 11.1 34 34 VRB 3 6 30.23 1024 10 16 0.00 0.00
4:56 pm 16:56 Sunny 82 27.8 52 11.1 35 35 Calm 30.22 1023 10 16 0.00 0.00
5:56 pm 17:56 Sunny 82 27.8 53 11.7 37 37 Calm 30.21 1023 10 16 0.00 0.00
6:56 pm 18:56 Sunny 82 27.8 53 11.7 37 37 VRB 3 6 30.20 1023 10 16 0.00 0.00
7:56 pm 19:56 Sunny 80 26.7 54 12.2 41 41 SSW 5 7 30.20 1023 10 16 0.00 0.00
8:56 pm 20:56 Sunny 76 24.4 54 12.2 47 47 S 5 7 30.20 1023 10 16 0.00 0.00
9:56 pm 21:56 Mostly Clear 73 22.8 53 11.7 50 50 S 3 6 30.21 1023 10 16 0.00 0.00
10:56 pm 22:56 Clear 70 21.1 54 12.2 57 57 Calm 30.23 1024 10 16 0.00 0.00
11:56 pm 23:56 Clear 68 20 54 12.2 61 61 Calm 30.23 1024 10 16 0.00 0.00

Powered by AerisWeather